Location: Ansan
(43.6898°N, 0.7731°E)
Time: 10:53:01
(UTC+00:00)

Cosmos 2227 Rocket - Pass Details

Date: 15 May 2026
Orbit: 837 x 844 km, 71.0° (Epoch: 5 June)

Event Time Altitude Azimuth Distance (km) Brightness Sun altitude
Exits shadow 22:55:54 15° 85° (E) 2,155 4.2 -25.9°
Drops below altitude 10° 22:58:01 10° 64° (ENE) 2,469 4.7 -26.0°
Sets 23:01:29 0° 42° (NE) 3,410 5.8 -26.1°
